Regional Weather Roundup
Issued by NWS Memphis, TN

Home | Current Version | Previous Version | Text Only | Print | Product List | Glossary On
Versions: 1 2 3 4 5 6 7 8 9 10 11 12 13 14 15 16 17 18 19 20 21 22 23 24 25 26 27 28 29 30 31 32 33 34 35 36 37 38 39 40 41 42 43 44 45 46 47 48 49 50
000
ASUS44 KMEG 222310
RWRMEG
MEMPHIS CWA HOURLY WEATHER ROUNDUP
NATIONAL WEATHER SERVICE MEMPHIS TN
600 PM CDT MON SEP 22 2014

...WEST TENNESSEE...

CITY           SKY/WX    TMP DP  RH WIND       PRES   REMARKS
MEMPHIS INTL   SUNNY     75  50  41 NE6       30.16R
NWS MEMPHIS      N/A     73 N/A N/A MISG        N/A
JACKSON        CLEAR     74  49  41 NE10      30.16S
LEXINGTON      CLEAR     70  50  49 N6        30.16R
SAVANNAH       CLEAR     73  50  43 N6        30.16R
DYERSBURG      SUNNY     72  46  40 N10       30.19S
UNION CITY     CLEAR     72  45  37 NE6       30.18S
PARIS          CLEAR     70  45  40 N8        30.19S
HUNTINGDON     CLEAR     70  42  36 N6        30.18R


...EASTERN ARKANSAS...

CITY           SKY/WX    TMP DP  RH WIND       PRES   REMARKS
JONESBORO      SUNNY     75  50  41 N6        30.18S
WEST MEMPHIS   SUNNY     74  52  46 NE13G21   30.16R
BATESVILLE     SUNNY     75  48  38 NE8       30.19R
NEWPORT        SUNNY     75  48  38 NE9G20    30.20R
WALNUT RIDGE   SUNNY     73  48  40 NE8       30.19S
BLYTHEVILLE    SUNNY     74  49  41 N12       30.19R
SEARCY         SUNNY     76  48  37 NE10      30.19S
STUTTGART      SUNNY     73  54  49 N9        30.17S
PINE BLUFF     SUNNY     76  51  41 N14       30.15S
MONTICELLO     SUNNY     78  51  38 VRB6      30.13S


...NORTH MISSISSIPPI...

CITY           SKY/WX    TMP DP  RH WIND       PRES   REMARKS
TUPELO         CLEAR     75  49  39 NE12      30.12S
OXFORD         SUNNY     72  52  49 N8        30.16R
OLIVE BRANCH   SUNNY     72  52  49 NE8       30.17R
TUNICA         SUNNY     73  52  46 N9        30.16R
CLARKSDALE     SUNNY     75  52  43 N9        30.15R
CORINTH        CLEAR     73  50  43 N8G14     30.14S
GRENADA        SUNNY     73  52  46 N5        30.13R
GREENWOOD      SUNNY     77  54  44 N12       30.11S
COLUMBUS       CLEAR     76  50  39 N10       30.10R
STARKVILLE     FAIR      75  50  41 N6        30.10S
GOLDEN TRIANGL CLEAR     79  52  38 N13       30.10R


...SOUTHEAST MISSOURI...

CITY           SKY/WX    TMP DP  RH WIND       PRES   REMARKS
WEST PLAINS    SUNNY     73  49  42 NE7       30.23S
POPLAR BLUFF   SUNNY     73  47  39 NE6       30.19F
CAPE GIRARDEAU SUNNY     71  48  43 NE8       30.21R


...NORTHWEST ALABAMA...

CITY           SKY/WX    TMP DP  RH WIND       PRES   REMARKS
MUSCLE SHOALS  CLEAR     75  47  36 N8        30.14R


...MIDDLE TENNESSEE...

CITY           SKY/WX    TMP DP  RH WIND       PRES   REMARKS
NASHVILLE      CLEAR     71  45  39 N12       30.16F
CLARKSVILLE    CLEAR     70  44  39 N12       30.19R
DICKSON        CLEAR     70  45  40 NE7       30.18R
COLUMBIA       CLEAR     73  46  38 N9        30.15R
LEWISBURG      CLEAR     71  47  42 NE7       30.15S


...WESTERN KENTUCKY...

CITY           SKY/WX    TMP DP  RH WIND       PRES   REMARKS
PADUCAH        CLEAR     73  47  39 N7        30.19F
FORT CAMPBELL  CLEAR     69  43  38 N8        30.19R


...CENTRAL ARKANSAS...

CITY           SKY/WX    TMP DP  RH WIND       PRES   REMARKS
LITTLE ROCK    MOSUNNY   78  48  34 NE9       30.17S


SKY/WX REPORTED AS FAIR MEANS FEW OR NO CLOUDS BELOW
12 THOUSAND FEET.



USA.gov is the U.S. government's official web portal to all federal, state and local government web resources and services.